When you browse on this site, cookies collect data to enhance your experience and personalize the content and advertising you see.
Visit our Privacy Policy to learn more. By continuing to use the site, you agree to this use of cookies and data.
  • In Romania
  • List of Countries
  • For 7 days
  • Water Temperature
  • Weather Map
  • Weather Widgets
  • user-avatar
    Login

    Hourly Weather Slepnevo

    Today, 13 December, Friday

    Time Temperature Precipitation Wind Pressure Humidity
    00:00 0°C° 0 mm 4 mps 744 mmHg 86%
    01:00 0°C° 0 mm 4 mps 744 mmHg 87%
    02:00 0°C° 0 mm 4 mps 744 mmHg 89%
    03:00 0°C° 0 mm 4 mps 744 mmHg 90%
    04:00 0°C° 0 mm 4 mps 744 mmHg 90%
    05:00 0°C° 0 mm 4 mps 743 mmHg 91%
    06:00 -1°C° 0 mm 4 mps 744 mmHg 91%
    07:00 -1°C° 0 mm 4 mps 744 mmHg 92%
    08:00 -1°C° 0 mm 4 mps 744 mmHg 92%
    09:00 -1°C° 0 mm 4 mps 744 mmHg 91%
    10:00 -1°C° 0 mm 4 mps 743 mmHg 90%
    11:00 -1°C° 0 mm 4 mps 743 mmHg 89%
    12:00 -1°C° 0 mm 4 mps 743 mmHg 89%
    13:00 -1°C° 0 mm 4 mps 743 mmHg 88%
    14:00 -1°C° 0 mm 4 mps 743 mmHg 88%
    15:00 -1°C° 0 mm 4 mps 743 mmHg 88%
    16:00 -2°C° 0 mm 4 mps 742 mmHg 88%
    17:00 -2°C° 0 mm 4 mps 742 mmHg 88%
    18:00 -2°C° 0 mm 4 mps 742 mmHg 86%
    19:00 -2°C° 0 mm 4 mps 742 mmHg 84%
    20:00 -2°C° 0 mm 4 mps 742 mmHg 83%
    21:00 -2°C° 0 mm 4 mps 742 mmHg 83%
    22:00 -2°C° 0 mm 4 mps 742 mmHg 84%
    23:00 -2°C° 0 mm 4 mps 742 mmHg 84%

    Tomorrow, 14 December, Saturday

    Time Temperature Precipitation Wind Pressure Humidity
    00:00 -2°C° 0 mm 4 mps 742 mmHg 84%
    01:00 -2°C° 0 mm 4 mps 742 mmHg 84%
    02:00 -2°C° 0 mm 4 mps 742 mmHg 84%
    03:00 -1°C° 0 mm 4 mps 742 mmHg 84%
    04:00 -1°C° 0 mm 4 mps 742 mmHg 84%
    05:00 -1°C° 0 mm 4 mps 741 mmHg 84%
    06:00 -1°C° 0 mm 4 mps 742 mmHg 83%
    07:00 -1°C° 0 mm 4 mps 742 mmHg 83%
    08:00 -2°C° 0 mm 5 mps 742 mmHg 82%
    09:00 -2°C° 0 mm 5 mps 742 mmHg 82%
    10:00 -2°C° 0 mm 5 mps 742 mmHg 81%
    11:00 -2°C° 0 mm 5 mps 742 mmHg 81%
    12:00 -1°C° 0 mm 5 mps 742 mmHg 80%
    13:00 -1°C° 0 mm 5 mps 742 mmHg 79%
    14:00 -1°C° 0 mm 5 mps 742 mmHg 79%
    15:00 -1°C° 0 mm 5 mps 742 mmHg 80%
    16:00 -1°C° 0 mm 5 mps 742 mmHg 81%
    17:00 -1°C° 0 mm 5 mps 741 mmHg 82%
    18:00 -1°C° 0 mm 5 mps 741 mmHg 84%
    19:00 -1°C° 0 mm 5 mps 741 mmHg 85%
    20:00 -1°C° 0 mm 5 mps 741 mmHg 87%
    21:00 -1°C° 0 mm 5 mps 741 mmHg 87%
    22:00 -1°C° 0 mm 5 mps 741 mmHg 86%
    23:00 -1°C° 0 mm 5 mps 740 mmHg 86%

    Day after tomorrow, 15 December, Sunday

    Time Temperature Precipitation Wind Pressure Humidity
    00:00 -1°C° 0 mm 5 mps 740 mmHg 88%
    01:00 -1°C° 0 mm 5 mps 740 mmHg 89%
    02:00 -1°C° 0 mm 5 mps 740 mmHg 90%
    03:00 -1°C° 0 mm 5 mps 739 mmHg 92%
    04:00 0°C° 0 mm 5 mps 738 mmHg 93%
    05:00 0°C° 0 mm 5 mps 738 mmHg 95%
    06:00 +1°C° 0.2 mm 5 mps 737 mmHg 94%
    07:00 +1°C° 0.2 mm 5 mps 737 mmHg 93%
    08:00 +1°C° 0.2 mm 4 mps 736 mmHg 92%
    09:00 +1°C° 0.4 mm 5 mps 736 mmHg 93%
    10:00 +1°C° 0.4 mm 5 mps 736 mmHg 94%
    11:00 +1°C° 0.4 mm 5 mps 736 mmHg 95%
    12:00 +1°C° 0.3 mm 5 mps 736 mmHg 93%
    13:00 +1°C° 0.3 mm 5 mps 737 mmHg 90%
    14:00 +1°C° 0.3 mm 5 mps 737 mmHg 88%
    15:00 0°C° 0.2 mm 5 mps 738 mmHg 86%
    16:00 0°C° 0.2 mm 4 mps 738 mmHg 84%
    17:00 0°C° 0.2 mm 4 mps 739 mmHg 82%
    18:00 0°C° 0 mm 4 mps 739 mmHg 83%
    19:00 -1°C° 0 mm 4 mps 739 mmHg 84%
    20:00 -1°C° 0 mm 4 mps 740 mmHg 85%
    21:00 -1°C° 0 mm 4 mps 739 mmHg 86%
    22:00 -1°C° 0 mm 4 mps 739 mmHg 87%
    23:00 -1°C° 0 mm 5 mps 739 mmHg 87%

    16 December, Monday

    Time Temperature Precipitation Wind Pressure Humidity
    00:00 0°C° 0.5 mm 5 mps 738 mmHg 88%
    01:00 +1°C° 0.5 mm 6 mps 738 mmHg 89%
    02:00 +2°C° 0.5 mm 6 mps 738 mmHg 90%
    03:00 +1°C° 0 mm 6 mps 738 mmHg 87%
    04:00 +1°C° 0 mm 5 mps 738 mmHg 85%
    05:00 +1°C° 0 mm 5 mps 739 mmHg 83%
    06:00 +1°C° 0 mm 5 mps 739 mmHg 81%
    07:00 +1°C° 0 mm 5 mps 739 mmHg 80%
    08:00 +1°C° 0 mm 5 mps 740 mmHg 78%
    09:00 +1°C° 0 mm 6 mps 740 mmHg 77%
    10:00 +1°C° 0 mm 6 mps 740 mmHg 75%
    11:00 +1°C° 0 mm 6 mps 741 mmHg 73%
    12:00 +1°C° 0 mm 6 mps 741 mmHg 74%
    13:00 +1°C° 0 mm 6 mps 741 mmHg 75%
    14:00 0°C° 0 mm 7 mps 741 mmHg 76%
    15:00 +1°C° 0 mm 6 mps 742 mmHg 76%
    16:00 +1°C° 0 mm 6 mps 743 mmHg 77%
    17:00 +1°C° 0 mm 5 mps 743 mmHg 78%
    18:00 +1°C° 0 mm 5 mps 744 mmHg 81%
    19:00 0°C° 0 mm 4 mps 744 mmHg 85%
    20:00 0°C° 0 mm 4 mps 745 mmHg 88%
    21:00 0°C° 0 mm 4 mps 745 mmHg 89%
    22:00 0°C° 0 mm 3 mps 745 mmHg 90%
    23:00 -1°C° 0 mm 3 mps 746 mmHg 91%

    17 December, Tuesday

    Time Temperature Precipitation Wind Pressure Humidity
    00:00 -1°C° 0 mm 3 mps 746 mmHg 89%
    01:00 -1°C° 0 mm 3 mps 745 mmHg 87%
    02:00 -1°C° 0 mm 3 mps 745 mmHg 86%
    03:00 -1°C° 0 mm 3 mps 745 mmHg 87%
    04:00 -1°C° 0 mm 3 mps 745 mmHg 88%
    05:00 -1°C° 0 mm 4 mps 745 mmHg 90%
    06:00 0°C° 0.1 mm 3 mps 745 mmHg 91%
    07:00 0°C° 0.1 mm 3 mps 745 mmHg 93%
    08:00 +2°C° 0.1 mm 2 mps 745 mmHg 94%
    09:00 +2°C° 0 mm 2 mps 745 mmHg 95%
    10:00 +2°C° 0 mm 2 mps 745 mmHg 95%
    11:00 +3°C° 0 mm 2 mps 746 mmHg 96%
    12:00 +3°C° 0 mm 2 mps 745 mmHg 96%
    13:00 +3°C° 0 mm 2 mps 745 mmHg 96%
    14:00 +4°C° 0 mm 1 mps 745 mmHg 97%
    15:00 +4°C° 0.2 mm 1 mps 745 mmHg 97%
    16:00 +4°C° 0.2 mm 1 mps 745 mmHg 97%
    17:00 +4°C° 0.2 mm 1 mps 745 mmHg 98%
    18:00 +4°C° 0.3 mm 1 mps 745 mmHg 98%
    19:00 +3°C° 0.3 mm 2 mps 745 mmHg 98%
    20:00 +3°C° 0.3 mm 2 mps 744 mmHg 98%
    21:00 +3°C° 0 mm 2 mps 745 mmHg 97%
    22:00 +3°C° 0 mm 2 mps 745 mmHg 97%
    23:00 +2°C° 0 mm 3 mps 745 mmHg 96%

    18 December, Wednesday

    Time Temperature Precipitation Wind Pressure Humidity
    00:00 +3°C° 0.1 mm 2 mps 744 mmHg 96%
    01:00 +3°C° 0.1 mm 2 mps 744 mmHg 96%
    02:00 +3°C° 0.1 mm 2 mps 744 mmHg 96%
    03:00 +3°C° 0.4 mm 2 mps 744 mmHg 97%
    04:00 +3°C° 0.4 mm 2 mps 744 mmHg 97%
    05:00 +3°C° 0.4 mm 2 mps 744 mmHg 97%
    06:00 +3°C° 0.3 mm 2 mps 743 mmHg 97%
    07:00 +3°C° 0.3 mm 2 mps 743 mmHg 97%
    08:00 +3°C° 0.3 mm 2 mps 743 mmHg 96%
    09:00 +3°C° 0 mm 2 mps 743 mmHg 96%
    10:00 +3°C° 0 mm 2 mps 743 mmHg 95%
    11:00 +3°C° 0 mm 2 mps 743 mmHg 94%
    12:00 +3°C° 0 mm 2 mps 743 mmHg 94%
    13:00 +3°C° 0 mm 2 mps 743 mmHg 93%
    14:00 +3°C° 0 mm 2 mps 742 mmHg 93%
    15:00 +3°C° 0 mm 2 mps 742 mmHg 94%
    16:00 +3°C° 0 mm 2 mps 742 mmHg 94%
    17:00 +3°C° 0 mm 2 mps 742 mmHg 94%
    18:00 +2°C° 0 mm 3 mps 742 mmHg 94%
    19:00 +2°C° 0 mm 3 mps 741 mmHg 95%
    20:00 +2°C° 0 mm 3 mps 741 mmHg 95%
    21:00 +2°C° 0 mm 3 mps 741 mmHg 94%
    22:00 +2°C° 0 mm 3 mps 740 mmHg 93%
    23:00 +1°C° 0 mm 4 mps 740 mmHg 92%
    Show more